Noatak, AK

1:40 AM AKST on December 14, 2017 (GMT -0900)
Noatak

Weather History for PAWN - October, 2011

Change the Weather History Date:

Sunday, October 30, 2011

  Actual Average Record
Temperature  
Mean Temperature 8 °F -  
Max Temperature 14 °F 18 °F 37 °F (2002)
Min Temperature 1 °F 8 °F -27 °F (2007)
Degree Days  
Heating Degree Days 58    
Moisture  
Dew Point 1 °F    
Average Humidity 69    
Maximum Humidity 79    
Minimum Humidity 61    
Precipitation  
Precipitation 0.00 in - - ()
Sea Level Pressure  
Sea Level Pressure 29.64 in    
Wind  
Wind Speed 8 mph (NW)    
Max Wind Speed 14 mph    
Max Gust Speed -    
Visibility 10 miles    
Events      
Averages and records for this station are not official NWS values.
T = Trace of Precipitation, MM = Missing Value Source: NWS Daily Summary

Daily Weather History Graph

Daily Weather History Graph

Search for Another Location

Airport or City:

Trip Planner

Search our weather history database for the weather conditions in past years. The results will help you decide how hot, cold, wet, or windy it might be!

Date:

Astronomy

Oct. 30, 2011 Rise Set
Actual Time 10:51 AM AKDT 6:18 PM AKDT
Civil Twilight 9:48 AM AKDT 7:20 PM AKDT
Nautical Twilight 8:43 AM AKDT 8:26 PM AKDT
Astronomical Twilight 7:40 AM AKDT 9:28 PM AKDT
Moon 5:39 PM AKDT (10/30) 7:47 PM AKDT (10/30)
Length of Visible Light 9h 32m
Length of Day
7h 27m
Waxing Crescent, 21% of the Moon is Illuminated
Oct 30
Waxing Crescent
Nov 2
First Quarter
Nov 10
Full
Nov 18
Last Quarter
Nov 24
New

Hourly Weather History & Observations

Time (AKDT) Temp. Windchill Dew Point Humidity Pressure Visibility Wind Dir Wind Speed Gust Speed Precip Events Conditions
12:16 AM 1.4 °F -14.5 °F -5.8 °F 72% 29.53 in 10.0 mi NNW 10.4 mph - N/A   Clear
12:36 AM 3.2 °F -13.1 °F -4.0 °F 72% 29.54 in 10.0 mi NNW 11.5 mph - N/A   Clear
12:56 AM 5.0 °F -10.0 °F -5.8 °F 61% 29.55 in 10.0 mi NNW 10.4 mph - N/A   Clear
1:16 AM 3.2 °F -12.2 °F -5.8 °F 66% 29.55 in 10.0 mi NNW 10.4 mph - N/A   Clear
1:36 AM 5.0 °F -8.1 °F -4.0 °F 66% 29.55 in 10.0 mi NNW 8.1 mph - N/A   Clear
1:56 AM 5.0 °F -10.0 °F -4.0 °F 66% 29.56 in 10.0 mi NNW 10.4 mph - N/A   Clear
2:16 AM 6.8 °F -5.9 °F -2.2 °F 67% 29.56 in 10.0 mi NNW 8.1 mph - N/A   Clear
2:36 AM 8.6 °F -2.6 °F -0.4 °F 67% 29.56 in 10.0 mi NW 6.9 mph - N/A   Clear
2:56 AM 6.8 °F -6.9 °F -4.0 °F 61% 29.57 in 10.0 mi NNW 9.2 mph - N/A   Clear
3:16 AM 6.8 °F -4.8 °F -2.2 °F 67% 29.58 in 10.0 mi NNW 6.9 mph - N/A   Clear
3:36 AM 6.8 °F -3.5 °F -0.4 °F 72% 29.58 in 10.0 mi North 5.8 mph - N/A   Clear
3:56 AM 3.2 °F -9.1 °F -5.8 °F 66% 29.58 in 10.0 mi NNW 6.9 mph - N/A   Clear
4:16 AM 3.2 °F -11.3 °F -2.2 °F 78% 29.58 in 10.0 mi NNW 9.2 mph - N/A   Clear
4:36 AM 3.2 °F -10.3 °F -5.8 °F 66% 29.58 in 10.0 mi NNW 8.1 mph - N/A   Clear
4:56 AM 3.2 °F -10.3 °F -4.0 °F 72% 29.59 in 10.0 mi NNW 8.1 mph - N/A   Clear
5:16 AM 6.8 °F -6.9 °F 1.4 °F 79% 29.59 in 10.0 mi NW 9.2 mph - N/A   Clear
5:36 AM 8.6 °F -6.3 °F -0.4 °F 67% 29.60 in 10.0 mi NW 11.5 mph - N/A   Clear
5:56 AM 8.6 °F -4.7 °F -0.4 °F 67% 29.60 in 10.0 mi NW 9.2 mph - N/A   Clear
6:16 AM 8.6 °F -5.5 °F -0.4 °F 67% 29.61 in 10.0 mi NNW 10.4 mph - N/A   Clear
6:36 AM 6.8 °F - -4.0 °F 61% 29.62 in 10.0 mi Calm Calm - N/A   Clear
6:56 AM 8.6 °F 2.0 °F -0.4 °F 67% 29.62 in 10.0 mi North 3.5 mph - N/A   Clear
7:16 AM 8.6 °F -6.3 °F -0.4 °F 67% 29.63 in 10.0 mi NW 11.5 mph - N/A   Clear
7:36 AM 8.6 °F -7.7 °F -0.4 °F 67% 29.63 in 10.0 mi NW 13.8 mph - N/A   Clear
7:56 AM 10.4 °F -4.8 °F 1.4 °F 67% 29.64 in 10.0 mi NW 12.7 mph - N/A   Clear
8:16 AM 10.4 °F -3.3 °F 1.4 °F 67% 29.64 in 10.0 mi NNW 10.4 mph - N/A   Clear
8:36 AM 12.2 °F -0.2 °F 3.2 °F 67% 29.64 in 10.0 mi NNE 9.2 mph - N/A   Clear
8:56 AM 8.6 °F -6.3 °F -0.4 °F 67% 29.64 in 10.0 mi NNW 11.5 mph - N/A   Clear
9:16 AM 10.4 °F -3.3 °F 1.4 °F 67% 29.65 in 10.0 mi NNW 10.4 mph - N/A   Clear
9:36 AM 8.6 °F -3.7 °F -0.4 °F 67% 29.65 in 10.0 mi NW 8.1 mph - N/A   Clear
9:56 AM 8.6 °F -5.5 °F -0.4 °F 67% 29.65 in 10.0 mi North 10.4 mph - N/A   Scattered Clouds
10:16 AM 8.6 °F -2.6 °F 1.4 °F 73% 29.66 in 10.0 mi NW 6.9 mph - N/A   Overcast
10:36 AM 8.6 °F -1.3 °F 1.4 °F 73% 29.66 in 10.0 mi NNW 5.8 mph - N/A   Overcast
10:56 AM 8.6 °F -2.6 °F 1.4 °F 73% 29.67 in 10.0 mi NW 6.9 mph - N/A   Overcast
11:16 AM 10.4 °F 0.8 °F 1.4 °F 67% 29.67 in 10.0 mi NNW 5.8 mph - N/A   Overcast
11:36 AM 12.2 °F 1.7 °F 3.2 °F 67% 29.67 in 10.0 mi North 6.9 mph - N/A   Overcast
11:56 AM 12.2 °F - 3.2 °F 67% 29.67 in 10.0 mi Calm Calm - N/A   Overcast
12:16 PM 12.2 °F 4.3 °F 3.2 °F 67% 29.68 in 10.0 mi NNW 4.6 mph - N/A   Overcast
12:36 PM 12.2 °F - 3.2 °F 67% 29.68 in 10.0 mi Calm Calm - N/A   Overcast
12:56 PM 12.2 °F 6.1 °F 3.2 °F 67% 29.68 in 10.0 mi NW 3.5 mph - N/A   Overcast
1:16 PM 12.2 °F 4.3 °F 3.2 °F 67% 29.69 in 10.0 mi West 4.6 mph - N/A   Overcast
1:36 PM 12.2 °F 4.3 °F 5.0 °F 73% 29.69 in 10.0 mi West 4.6 mph - N/A   Overcast
1:56 PM 14.0 °F - 5.0 °F 67% 29.69 in 10.0 mi Calm Calm - N/A   Overcast
2:16 PM 12.2 °F 6.1 °F 1.4 °F 62% 29.70 in 10.0 mi SW 3.5 mph - N/A   Overcast
2:36 PM 12.2 °F - 3.2 °F 67% 29.70 in 10.0 mi Calm Calm - N/A   Overcast
2:56 PM 12.2 °F - 5.0 °F 73% 29.70 in 10.0 mi Calm Calm - N/A   Overcast
3:16 PM 12.2 °F - 6.8 °F 79% 29.70 in 10.0 mi Calm Calm - N/A   Overcast
3:36 PM 12.2 °F 6.1 °F 5.0 °F 73% 29.70 in 10.0 mi South 3.5 mph - N/A   Scattered Clouds
3:56 PM 12.2 °F 6.1 °F 5.0 °F 73% 29.70 in 10.0 mi South 3.5 mph - N/A   Clear
4:16 PM 12.2 °F - 5.0 °F 73% 29.70 in 10.0 mi Calm Calm - N/A   Partly Cloudy
4:36 PM 12.2 °F 2.9 °F 3.2 °F 67% 29.70 in 10.0 mi SSE 5.8 mph - N/A   Scattered Clouds
4:56 PM 10.4 °F 4.0 °F 3.2 °F 73% 29.71 in 10.0 mi SSE 3.5 mph - N/A   Mostly Cloudy
5:16 PM 10.4 °F 4.0 °F 3.2 °F 73% 29.71 in 10.0 mi SSE 3.5 mph - N/A   Mostly Cloudy
5:36 PM 10.4 °F 4.0 °F 3.2 °F 73% 29.71 in 10.0 mi SSE 3.5 mph - N/A   Overcast
5:56 PM 10.4 °F 2.2 °F 3.2 °F 73% 29.71 in 10.0 mi SSE 4.6 mph - N/A   Mostly Cloudy
6:16 PM 10.4 °F 4.0 °F 3.2 °F 73% 29.71 in 10.0 mi SSE 3.5 mph - N/A   Mostly Cloudy
6:36 PM 8.6 °F 0.1 °F 3.2 °F 79% 29.71 in 10.0 mi SSE 4.6 mph - N/A   Overcast
6:56 PM 8.6 °F 2.0 °F 3.2 °F 79% 29.71 in 10.0 mi SSE 3.5 mph - N/A   Mostly Cloudy
7:16 PM 6.8 °F -0.1 °F 1.4 °F 79% 29.72 in 10.0 mi SSE 3.5 mph - N/A   Clear
7:36 PM 8.6 °F - 1.4 °F 73% 29.72 in 10.0 mi Calm Calm - N/A   Partly Cloudy
7:56 PM 8.6 °F - 1.4 °F 73% 29.72 in 10.0 mi Calm Calm - N/A   Scattered Clouds
8:16 PM 6.8 °F - 1.4 °F 79% 29.72 in 10.0 mi Calm Calm - N/A   Mostly Cloudy
8:36 PM 6.8 °F - 1.4 °F 79% 29.73 in 10.0 mi Calm Calm - N/A   Overcast
8:56 PM 6.8 °F - 1.4 °F 79% 29.73 in 10.0 mi Calm Calm - N/A   Overcast
9:16 PM 6.8 °F - 1.4 °F 79% 29.73 in 10.0 mi Calm Calm - N/A   Mostly Cloudy
9:36 PM 5.0 °F - -0.4 °F 78% 29.73 in 10.0 mi Calm Calm - N/A   Mostly Cloudy
9:56 PM 5.0 °F -2.1 °F -0.4 °F 78% 29.73 in 10.0 mi East 3.5 mph - N/A   Scattered Clouds
10:16 PM 6.8 °F - 1.4 °F 79% 29.74 in 10.0 mi Calm Calm - N/A   Partly Cloudy
10:36 PM 5.0 °F - 1.4 °F 85% 29.74 in 10.0 mi Calm Calm - N/A   Scattered Clouds
10:56 PM 3.2 °F - -2.2 °F 78% 29.74 in 10.0 mi Calm Calm - N/A   Partly Cloudy
11:16 PM 1.4 °F - -5.8 °F 72% 29.74 in 10.0 mi Calm Calm - N/A   Clear
11:36 PM 1.4 °F -8.3 °F -2.2 °F 85% 29.75 in 10.0 mi North 4.6 mph - N/A   Clear
11:56 PM 1.4 °F -6.2 °F -2.2 °F 85% 29.75 in 10.0 mi North 3.5 mph - N/A   Clear